RH
75 69 65 63 61 60 61 58 57 53 51 48 44 44 39 35 34 32 31 31 36 40 44 44 48 52 60 57 60 63 66 74 77 77 77 75 72 73 76 76 75 79 82
82 76 72 67 63 60 58 57 58 57 52 50 48 45 40 37 35 34 33 33 33 34 34 35 36 39 40 41 42 47 52 55 58 59 63 68 63 64 65 63 61 64 64
89 84 78 72 68 65 61 58 55 52 50 48 47 45 43 41 39 38 37 36 36 36 36 35 35 35 34 33 33 34 42 48 48 46 49 47 49 57 56 54 56 57 57
97 92 87 82 78 72 68 65 62 60 57 55 52 49 46 44 43 41 41 41 40 40 40 41 41 40 39 39 37 35 34 34 35 39 43 47 48 46 47 48 49 52 52
98 98 97 95 90 85 80 76 74 72 70 68 65 63 59 54 50 47 46 43 43 42 43 43 41 40 38 38 39 38 36 36 37 37 35 36 39 43 44 42 44 44 45
91 94 98 98 97 95 92 88 86 84 82 81 79 78 76 72 69 63 58 54 52 51 51 49 47 45 44 42 41 40 39 36 36 37 37 36 36 35 35 35 35 34 34
77 76 80 84 94 97 97 95 92 89 88 87 85 84 82 81 80 78 76 73 71 67 63 60 56 54 53 52 50 48 46 44 40 38 39 39 39 39 38 37 37 36 35
76 76 76 70 69 70 79 89 94 93 91 89 87 85 84 84 82 80 78 77 78 77 75 73 69 66 64 61 59 57 54 53 53 52 51 49 48 46 46 45 43 41 41
78 76 73 70 69 67 65 60 62 68 77 84 86 87 87 86 84 82 80 80 78 77 75 73 72 71 71 69 69 66 62 58 55 52 50 48 47 45 44 44 43 42 42
78 76 73 70 67 65 62 60 60 58 56 55 56 59 64 69 73 74 75 75 76 75 75 75 74 72 70 68 67 65 65 65 64 64 64 60 59 58 58 57 54 51 48
80 76 73 70 68 65 62 60 58 56 55 53 51 50 50 50 51 54 57 59 62 63 63 63 66 70 72 74 75 71 68 65 63 62 60 58 57 56 56 55 54 53 52
84 79 75 71 67 64 62 59 55 53 51 50 49 48 47 46 45 43 43 43 46 47 50 53 55 56 59 64 66 68 69 68 68 67 65 62 60 60 59 58 56 53 50
87 82 76 70 66 61 56 54 52 49 47 46 45 43 42 41 39 39 38 37 36 39 36 37 40 47 51 54 56 58 62 66 66 66 64 61 60 60 59 59 59 59 59
88 86 80 73 67 61 54 50 46 43 43 41 40 39 38 36 35 35 34 33 31 29 28 28 30 34 37 39 41 44 47 50 54 59 62 60 58 57 56 56 59 59 60
80 83 78 70 64 59 54 49 47 42 40 39 38 37 35 34 33 34 34 32 30 28 28 26 24 24 24 26 29 31 34 36 40 43 50 51 51 53 55 56 56 55 55
69 72 73 70 66 60 54 48 46 43 39 41 44 44 42 41 41 43 45 44 41 39 37 36 29 28 28 27 25 25 28 31 34 38 41 44 42 43 45 45 47 48 48
67 67 65 65 62 59 57 52 47 43 44 44 43 45 47 47 46 46 47 47 47 45 43 42 39 35 33 32 32 29 29 29 35 37 39 43 44 43 43 41 40 40 40
73 68 63 58 56 54 52 49 44 42 41 40 39 40 42 45 48 52 52 53 50 49 50 48 46 45 45 42 40 38 36 34 34 36 37 39 42 46 48 45 40 39 38
93 81 74 69 63 58 54 48 44 43 42 40 37 36 37 39 42 47 52 53 49 47 47 48 50 51 50 49 48 49 49 48 46 45 44 44 45 49 51 47 41 41 41
97 94 85 74 68 63 58 54 52 52 48 44 42 41 39 39 39 40 42 44 44 44 43 43 45 46 47 50 51 54 56 56 54 52 54 54 55 56 57 51 45 46 46
91 95 92 82 72 67 65 64 64 62 57 55 53 52 53 56 51 47 48 45 42 39 36 35 35 35 38 40 45 52 56 55 56 56 57 59 61 63 64 57 54 55 53
91 91 92 89 83 78 73 70 69 68 67 67 66 64 63 62 55 54 52 50 48 45 42 40 38 39 41 42 43 44 47 50 53 56 59 61 63 65 63 59 62 60 59
91 92 92 92 88 87 83 79 77 76 77 77 75 72 67 64 61 59 56 54 52 48 45 43 41 40 42 45 48 50 52 54 58 59 59 61 63 66 67 65 63 63 61
95 97 97 97 94 92 91 89 88 87 87 83 79 74 69 63 59 56 55 55 52 51 49 47 46 44 44 45 48 53 58 61 63 64 64 65 68 67 62 61 61 63 63
100 100 100 100 100 100 99 99 99 97 95 92 87 82 76 72 68 62 56 54 55 53 52 51 49 48 48 49 51 56 64 65 67 70 72 70 65 65 64 67 70 71 77
100 100 100 100 100 100 100 100 100 99 97 94 90 86 82 77 72 67 62 58 57 57 56 55 54 53 53 55 58 66 70 72 77 76 75 70 71 72 73 74 76 80 82